Regional Weather Roundup
Issued by NWS Kansas City/Pleasant Hill, MO

Home | Current Version | Previous Version | Graphics & Text | Print | Product List | Glossary Off
Versions: 1 2 3 4 5 6 7 8 9 10 11 12 13 14 15 16 17 18 19 20 21 22 23 24 25 26 27 28

000
ASUS43 KEAX 231810
RWREAX

WEATHER ROUNDUP FOR EASTERN KANSAS AND NORTHWEST MISSOURI
NATIONAL WEATHER SERVICE KANSAS CITY/PLEASANT HILL MO
100 PM CDT FRI SEP 23 2016

KSZ040-057-103>105-MOZ028-029-037-043-231900-
...KANSAS CITY METROPOLITAN AREA...

CITY           SKY/WX    TMP DP  RH WIND       PRES   REMARKS
K.C. INTL      MOSUNNY   85  66  53 SW6       30.04F
6HR MIN TEMP:  65; 6HR MAX TEMP:  85;

K.C. DOWNTOWN  SUNNY     88  64  44 S9        30.02F
6HR MIN TEMP:  70; 6HR MAX TEMP:  88;

LEES SUMMIT    SUNNY     85  66  53 SE5       30.05F
6HR MIN TEMP:  68; 6HR MAX TEMP:  86;

OLATHE - IXD   SUNNY     85  66  53 S9        30.04F
6HR MIN TEMP:  65; 6HR MAX TEMP:  85;

OLATHE - OJC   SUNNY     83  66  56 SW10      30.05F
6HR MIN TEMP:  65; 6HR MAX TEMP:  84;

LAWRENCE       SUNNY     87  66  49 SE13      30.02F

$$

MOZ001>008-011>017-020>025-030>033-038>040-044>046-053-054-231900-
...NORTHERN AND CENTRAL MISSOURI...

CITY           SKY/WX    TMP DP  RH WIND       PRES   REMARKS
ST. JOSEPH     SUNNY     88  66  48 S8        30.02F HX  90
6HR MIN TEMP:  66; 6HR MAX TEMP:  88;

MOSBY          CLEAR     86  63  45 S5        30.04F
WHITEMAN AFB   MOSUNNY   86  68  56 SW5       30.05F
6HR MIN TEMP:  64; 6HR MAX TEMP:  86;

CLINTON        SUNNY     84  68  58 CALM      30.07F
SEDALIA        MOSUNNY   87  66  49 SW6       30.08F
6HR MIN TEMP:  67; 6HR MAX TEMP:  87;

WARSAW         NOT AVBL
CHILLICOTHE      N/A     87  67  51 CALM      30.05F HX  90
6HR MIN TEMP:  66; 6HR MAX TEMP:  88;

KIRKSVILLE     SUNNY     88  68  51 CALM      30.07F HX  91
6HR MIN TEMP:  65; 6HR MAX TEMP:  88;


$$

MOZ041-047>049-056>058-063>065-088>090-097-231900-
...EASTERN AND SOUTHERN MISSOURI...

CITY           SKY/WX    TMP DP  RH WIND       PRES   REMARKS
ST. LOUIS INTL PTSUNNY   90  63  40 CALM      30.07F HX  91
6HR MIN TEMP:  70; 6HR MAX TEMP:  90;

SPIRIT OF STL  MOSUNNY   87  69  54 S5        30.06F HX  91
COLUMBIA       SUNNY     87  65  47 VRB5      30.08F
JEFFERSON CITY SUNNY     88  66  48 CALM      30.06F HX  90
ROLLA          SUNNY     84  64  50 VRB6      30.09F
OSAGE BEACH    MOSUNNY   86  66  51 SW10      30.09F
SPRINGFIELD    SUNNY     85  61  44 S12G17    30.08F
BRANSON        MOSUNNY   84  64  51 CALM      30.10F
JOPLIN         SUNNY     85  65  51 VRB5      30.06F
WEST PLAINS    MOSUNNY   85  65  51 S8        30.12F

$$

IAZ060-094-KSZ022-034>040-054-083-096-NEZ052-066-093-231900-
...KANSAS...SOUTHEAST NEBRASKA AND IOWA...

CITY           SKY/WX    TMP DP  RH WIND       PRES   REMARKS
TOPEKA         SUNNY     87  65  47 S15       30.01F
6HR MIN TEMP:  65; 6HR MAX TEMP:  87;

MANHATTAN      SUNNY     88  67  49 S15G21    29.98F HX  91
EMPORIA        SUNNY     85  66  53 S14       30.02F
CHANUTE        SUNNY     86  66  51 S8        30.03F
WICHITA        MOSUNNY   85  67  54 S17G28    29.98F
OMAHA          MOSUNNY   87  65  47 SE15      29.97F
LINCOLN        SUNNY     89  62  40 S15G23    29.95F
FALLS CITY     SUNNY     86  65  49 S10       29.99F
LAMONI         SUNNY     84  69  60 SE7       30.05F
DES MOINES     PTSUNNY   85  69  58 SE14      30.02F

$$





USA.gov is the U.S. government's official web portal to all federal, state and local government web resources and services.